Tracking 35280 objects as of 7-Sep-2026
HD Live streaming from Space Station
objects crossing your sky now

DELTA 1 DEB

Track DELTA 1 DEB now!
10-day predictions


NORAD ID: 7141
Int'l Code: 1973-086DF
Launch date: November 6, 1973
Source: United States (US)
Launch site: AIR FORCE WESTERN TEST RANGE (AFWTR)

Note: This is SATELLITE DEBRIS
Your satellite tracking list
Your tracking list is empty




NASA's NSSDC Master Catalog

Two Line Element Set (TLE):
1 07141U 73086DF  26249.38806056  .00000040  00000-0  62914-3 0  9995
2 07141 102.0766 300.4419 0024792 161.0783 212.3388 12.40964877385122
Source of the keplerian elements: AFSPC